Location: Colonia Mina de C?rbuni
(46.1667°N, 22.7167°E)
Time: 00:45:14
(UTC+00:00)

Cosmos 1741 Rocket - Pass Details

Date: 04 February 2023
Orbit: 761 x 781 km, 74.0° (Epoch: 24 March)

Event Time Altitude Azimuth Distance (km) Brightness Sun altitude
Rises 17:54:33 0° 210° (SSW) 3,248 7.6 -23.9°
Reaches altitude 10° 17:56:57 10° 214° (SW) 2,327 6.9 -24.3°
Maximum altitude 18:02:12 62° 295° (WNW) 881 4.4 -25.2°
Enters shadow 18:05:54 20° 11° (N) 1,760 5.8 -25.8°
